DW0088 Weather Reports


Display with metric or nautical units.
time (UTC)temp
F
wind
direction
speed
MPH
gust
MPH
rain 1hr
in
rain 24hr
in
rain mn
in
humidity
%
barometer
mb
20260505054947 51 34 6.0 12.0 0.02 0.29 0.17 99 1010.1
20260505053946 50 28 6.0 11.0 0.02 0.29 0.17 99 1010.1
20260505052947 50 20 6.0 10.0 0.03 0.29 0.17 99 1010.0
20260505051947 51 21 6.0 11.0 0.03 0.28 0.17 99 1010.0
20260505050948 51 4 5.0 9.0 0.03 0.28 0.16 99 1009.9
20260505040947 51 28 7.0 13.0 0.02 0.24 0.13 99 1009.7
20260505035948 51 25 6.0 12.0 0.02 0.24 0.12 99 1009.8
20260505034949 52 18 6.0 10.0 0.02 0.24 0.12 99 1009.8
20260505033948 52 19 6.0 10.0 0.01 0.23 0.11 99 1009.8
20260505032948 52 16 6.0 9.0 0.00 0.22 0.10 99 1009.8
20260505031948 52 16 6.0 11.0 0.00 0.22 0.10 99 1009.8
20260505024948 53 10 6.0 12.0 0.00 0.22 0.10 99 1010.0
20260505023948 53 12 8.0 12.0 0.00 0.22 0.10 99 1010.1
20260505022948 53 16 7.0 11.0 0.00 0.22 0.10 99 1010.1
20260505021948 53 11 6.0 12.0 0.00 0.22 0.10 99 1010.1
20260505020947 53 1 9.0 13.0 0.00 0.22 0.10 99 1010.0
20260505014948 54 356 8.0 13.0 0.02 0.22 0.10 99 1009.9
20260505013947 54 356 9.0 15.0 0.02 0.22 0.10 99 1010.0
20260505012948 54 348 10.0 14.0 0.02 0.22 0.10 99 1010.1
20260505011947 55 3 7.0 13.0 0.02 0.22 0.10 99 1010.1
20260505010948 56 5 7.0 11.0 0.03 0.22 0.10 99 1010.2
20260505004949 57 13 4.0 7.0 0.02 0.20 0.09 99 1010.2
20260505003947 57 4 3.0 5.0 0.02 0.20 0.09 99 1010.2
20260505002948 57 334 4.0 6.0 0.03 0.20 0.09 99 1010.3
20260505001948 57 326 5.0 7.0 0.04 0.20 0.08 99 1010.3
20260505000947 57 336 6.0 9.0 0.05 0.19 0.07 99 1010.3
20260504235949 57 304 5.0 8.0 0.05 0.18 0.06 99 1010.4
20260504234948 57 299 2.0 5.0 0.06 0.18 0.06 99 1010.4
20260504233948 57 257 1.0 3.0 0.06 0.18 0.06 99 1010.5
20260504232949 57 250 1.0 3.0 0.05 0.17 0.05 98 1010.7
20260504231948 57 239 1.0 4.0 0.04 0.16 0.04 99 1010.7
20260504230948 57 246 1.0 3.0 0.02 0.14 0.02 98 1010.8
20260504225948 57 247 1.0 4.0 0.02 0.13 0.02 98 1010.9
20260504224948 57 244 0.0 2.0 0.01 0.13 0.01 98 1010.9
20260504223948 57 251 0.0 1.0 0.01 0.13 0.01 98 1011.0
20260504222948 57 253 0.0 1.0 0.00 0.13 0.00 98 1011.2
20260504220948 57 219 0.0 1.0 0.01 0.13 0.00 98 1011.3
20260504214948 58 238 0.0 3.0 0.01 0.13 0.13 98 1011.4
20260504213948 58 191 0.0 3.0 0.01 0.13 0.13 98 1011.6
20260504212948 58 178 1.0 3.0 0.01 0.13 0.13 98 1011.7
20260504211950 58 159 0.0 2.0 0.01 0.12 0.12 98 1011.7
20260504204948 58 167 0.0 2.0 0.09 0.12 0.12 97 1011.5
20260504203948 58 225 0.0 1.0 0.10 0.12 0.12 97 1011.5
20260504201948 58 154 1.0 3.0 0.10 0.11 0.11 96 1011.5
20260504200949 59 138 1.0 3.0 0.09 0.10 0.10 96 1011.4
20260504195949 59 160 2.0 5.0 0.07 0.08 0.08 96 1011.6
20260504194949 59 135 2.0 4.0 0.02 0.03 0.03 96 1011.6
20260504193949 59 76 2.0 4.0 0.01 0.02 0.02 95 1011.4
20260504192948 60 72 2.0 4.0 0.01 0.02 0.02 95 1011.3
20260504190949 60 122 1.0 5.0 0.00 0.01 0.01 93 1011.2
20260504185948 60 97 5.0 8.0 0.00 0.02 0.01 93 1011.3
20260504183949 61 0 0.0 0.0 0.00 0.02 0.01 94 1011.2
20260504182949 61 129 0.0 3.0 0.00 0.02 0.01 93 1011.1
20260504180949 61 83 0.0 2.0 0.00 0.05 0.01 93 1011.0
20260504175949 61 71 1.0 4.0 0.00 0.05 0.01 93 1011.0
20260504174948 61 77 1.0 6.0 0.00 0.05 0.01 93 1011.0
20260504173949 61 29 1.0 3.0 0.00 0.05 0.01 92 1011.1
20260504172949 61 25 2.0 3.0 0.00 0.05 0.01 92 1011.3
20260504171948 61 51 1.0 2.0 0.00 0.05 0.01 93 1011.3
20260504170948 61 44 1.0 2.0 0.00 0.05 0.01 92 1011.2
20260504150949 63 268 4.0 7.0 0.00 0.05 0.01 91 1011.4
20260504140951 66 304 2.0 6.0 0.00 0.05 0.01 82 1011.7
20260504080951 59 226 0.0 3.0 0.00 0.21 0.01 100 1012.4